Regional Weather Roundup
Issued by NWS

Home | Current Version | Previous Version | Graphics & Text | Print | Product List | Glossary On
Versions: 1 2 3 4 5 6 7 8 9 10 11 12 13 14 15 16 17 18 19 20 21 22 23 24 25 26 27 28 29 30 31 32 33 34 35 36 37 38 39 40 41 42 43 44 45 46 47 48 49 50
000
ASUS43 KMPX 271110
RWRMN
WEATHER ROUNDUP FOR MINNESOTA
NATIONAL WEATHER SERVICE TWIN CITIES/CHANHASSEN MN
500 AM CST THU NOV 27 2014


NOTE: "FAIR" INDICATES FEW OR NO CLOUDS BELOW 12,000 FEET WITH NO
SIGNIFICANT WEATHER AND/OR OBSTRUCTIONS TO VISIBILITY. N/A MEANS
CURRENT SKY AND/OR WEATHER CONDITIONS ARE NOT AVAILABLE.

MNZ060>063-068>070-271200-
   Twin Cities Metro

CITY           SKY/WX    TMP DP  RH WIND       PRES   REMARKS
TWIN CITIES    CLEAR      1  -5  75 N9        30.48R WCI -14
ST PAUL        CLEAR      2  -4  76 NW10      30.50R WCI -14
CRYSTAL        CLEAR      1  -6  72 NW9       30.47S WCI -14
BLAINE         CLEAR      1  -4  78 NW7       30.47R WCI -11
LAKEVILLE      CLEAR     -6  -8  92 NW5       30.46R WCI -17
EDEN PRAIRIE   CLEAR      0  -7  72 N9        30.47R WCI -15
SOUTH ST PAUL  CLEAR      2  -4  73 N6        30.47S WCI  -9
$$
MNZ001>005-007-008-013>017-022>024-027-028-271200-
   Northwest Minnesota

CITY           SKY/WX    TMP DP  RH WIND       PRES   REMARKS
HALLOCK        MOCLDY   -17 -20  83 SE6       30.50F WCI -31
ROSEAU         FAIR     -15 -20  76 CALM      30.49F
WARROAD        PTCLDY   -15 -20  76 CALM      30.48F
THIEF RVR FALL MOCLDY   -13 -15  92 CALM      30.48F
CROOKSTON      PTCLDY   -15 -18  84 CALM      30.54S
FOSSTON        MOCLDY   -20 -27  69 CALM      30.49S
DETROIT LAKES  MOCLDY    -9 -15  77 CALM      30.47F
MOORHEAD       PTCLDY    -9 -13  84 CALM      30.55R
PARK RAPIDS    PTCLDY   -15 -22  70 NW3       30.45S
MAHNOMEN       FAIR     -13 -17  81 CALM      30.48S
$$
MNZ006-009>011-018-025>026-271200-
   North Central Minnesota

CITY           SKY/WX    TMP DP  RH WIND       PRES   REMARKS
BAUDETTE       MOCLDY   -14 -19  79 W3        30.47R
FLAG ISLAND    PTCLDY   -17 -20  83 CALM      30.47F
INTL FALLS     PTCLDY   -16 -22  74 W3        30.45F
WASKISH        MOCLDY    -9 -15  77 CALM      30.47S
BIG FORK       PTCLDY   -15 -18  84 CALM      30.44S
LONGVILLE      PTCLDY    -9 -15  77 CALM      30.46S
GRAND RAPIDS   PTCLDY    -9 -13  84 NW5       30.42S WCI -21
CRANE LAKE     PTCLDY   -17 -20  83 CALM      30.48R
ORR            PTCLDY   -15 -20  76 CALM      30.40S
COOK           MOCLDY   -18 -24  76 CALM      30.43R
WALKER         FAIR     -14 -18  80 W3        30.46S
$$
MNZ012-019>021-037-271200-
   Northeast Minnesota

CITY           SKY/WX    TMP DP  RH WIND       PRES   REMARKS
DULUTH         PTCLDY    -7 -13  75 NW7       30.39S WCI -21
ELY            CLEAR    -13 -17  84 NW3       30.40R
HIBBING        PTCLDY    -8 -14  74 N6        30.42S WCI -21
EVELETH        LGT SNOW  -8 -13  77 CALM      30.42S
DULUTH HARBOR  CLEAR      1  -8  66 NW5       30.49S WCI  -8
TWO HARBORS    CLEAR     -2 -11  65 NW3       30.39R
SILVER BAY     CLEAR     -4  -9  77 NW6       30.39R WCI -16
GRAND MARAIS     N/A     -3 -13  62 N18G33    30.39R WCI -25
G MARAIS ARPRT PTCLDY   -11 -18  70 N9        30.29R WCI -29
$$
MNZ029>031-032-039>041-046>048-054>057-064-271200-
   West Central Minnesota

CITY           SKY/WX    TMP DP  RH WIND       PRES   REMARKS
FERGUS FALLS   PTCLDY   -13 -18  77 W5        30.55S WCI -25
WHEATON        PTCLDY    -9 -13  84 W3        30.57R
MORRIS         FAIR     -11 -17  77 NW7       30.51S WCI -26
ALEXANDRIA     PTCLDY    -5 -10  79 CALM      30.46F
WADENA         PTCLDY    -9 -15  77 CALM      30.46S
GLENWOOD       PTCLDY    -8 -11  84 NW3       30.47S
APPLETON       PTCLDY    -9 -15  77 NW6       30.54R WCI -23
BENSON         PTCLDY   -11 -17  77 NW5       30.52R WCI -23
ORTONVILLE     PTCLDY    -8 -13  77 NW5       30.53S WCI -19
MADISON        PTCLDY    -6 -11  77 NW7       30.55R WCI -20
WILLMAR        FAIR      -8 -13  77 NW7       30.50S WCI -22
$$
MNZ033>034-036-042>043-049>051-058-059-271200-
   Central Minnesota

CITY           SKY/WX    TMP DP  RH WIND       PRES   REMARKS
ST CLOUD       CLEAR     -3  -9  75 NW8       30.48S WCI -18
PAYNESVILLE    PTCLDY    -9 -13  84 W3        30.49R
AITKIN         CLEAR     -4 -11  71 CALM      30.46R
PINE RIVER     PTCLDY   -11 -15  84 CALM      30.48F
BRAINERD       PTCLDY    -7 -10  87 NW6       30.47S WCI -20
STAPLES        PTCLDY    -9 -15  77 N3        30.47S
LITTLE FALLS   CLEAR     -6  -9  84 NW3       30.50R
LITCHFIELD     PTCLDY    -4  -8  84 NW5       30.49R WCI -15
BUFFALO        PTCLDY    -1  -6  80 NW6       30.50R WCI -12
MAPLE LAKE     PTCLDY    -1  -6  82 NW7       30.49R WCI -15
$$
MNZ037-044-045-052-053-271200-
   East Central Minnesota

CITY           SKY/WX    TMP DP  RH WIND       PRES   REMARKS
PRINCETON      PTCLDY     0  -8  71 CALM      30.47S
MORA           CLEAR     -4  -8  84 NW6       30.49S WCI -16
CAMBRIDGE      PTCLDY     0  -8  71 NW5       30.46S WCI -10
RUSH CITY      MOCLDY    -2  -7  81 N5        30.48S WCI -12
MOOSE LAKE     CLEAR     -4  -9  77 N6        30.44S WCI -16
CLOQUET        CLEAR     -8 -11  84 NW8       30.41F WCI -23
MCGREGOR       CLEAR     -6  -9  84 NW6       30.46S WCI -18
$$
MNZ071>073-080-081-089-090-097-098-271200-
   Southwest Minnesota

CITY           SKY/WX    TMP DP  RH WIND       PRES   REMARKS
MONTEVIDEO     PTCLDY    -8 -11  84 N6        30.54R WCI -21
GRANITE FALLS  PTCLDY    -8 -12  81 W8        30.55R WCI -24
CANBY          PTCLDY    -9 -13  82 W7        30.53F WCI -24
MARSHALL       PTCLDY    -9 -17  70 NW9       30.50S WCI -27
REDWOOD FALLS  PTCLDY    -7 -12  79 NW8       30.52R WCI -23
OLIVIA         PTCLDY    -4  -9  77 NW6       30.50F WCI -16
PIPESTONE      PTCLDY    -6  -9  84 CALM      30.45S
WINDOM         PTCLDY    -8 -11  84 NW12      30.47R WCI -27
WORTHINGTON    MOCLDY    -8 -11  84 NW6       30.46R WCI -21
JACKSON        PTCLDY    -6  -9  84 NW9       30.46R WCI -22
TRACY          MOCLDY    -7 -11  81 NW9       30.50R WCI -24
SLAYTON        MOCLDY    -6 -10  82 NW9       30.46S WCI -23
$$
MNZ065>067-074>077-082>085-091>093-271200-
   South Central Minnesota

CITY           SKY/WX    TMP DP  RH WIND       PRES   REMARKS
MANKATO        PTCLDY    -8 -15  71 NW6       30.47R WCI -21
NEW ULM        PTCLDY    -8 -11  84 NW9       30.50R WCI -25
ST JAMES       MOCLDY    -6 -11  77 W12       30.51R WCI -24
FAIRMONT       PTCLDY    -6  -9  84 NW13      30.46R WCI -25
GLENCOE        PTCLDY    -3  -7  82 NW7       30.49R WCI -16
FARIBAULT      FAIR      -2  -8  78 NW6       30.45R WCI -14
OWATONNA       PTCLDY    -6 -11  77 W8        30.44R WCI -21
WASECA         PTCLDY    -6 -13  71 NW9       30.47R WCI -22
ALBERT LEA     CLEAR     -4  -8  84 W5        30.42R WCI -15
$$
MNZ078>079-086>088-094>096-271200-
   Southeast Minnesota

CITY           SKY/WX    TMP DP  RH WIND       PRES   REMARKS
ROCHESTER      CLEAR      2  -5  72 NW10      30.39R WCI -14
RED WING         N/A      3  -4  72 NW3       30.44S
STANTON        CLEAR      1  -5  76 NW5       30.45R WCI  -9
DODGE CENTER   PTCLDY     0  -6  78 NW10      30.40R WCI -17
WINONA         CLEAR     14   9  79 NW13G18   30.42R WCI   0
AUSTIN         PTCLDY     0  -8  71 NW8       30.41R WCI -15
PRESTON        CLEAR      6   1  80 NW8       30.38R WCI  -7
$$
ABBREVIATIONS USED IN REMARKS
   TC - TEMPERATURES IN CELSIUS
  WCI - WIND CHILL INDEX
   HX - HEAT INDEX
  VSB - VISIBILITY
$$



USA.gov is the U.S. government's official web portal to all federal, state and local government web resources and services.